Погода в Маниле

Филиппины     14˚35′46″N   120˚59′03″E
темп.,
°C
ветер,
м/с
пор.,
м/с
влажн.,
%
обл.,
%
осадки,
мм/ч
давл.,
гПа
погр.,
м
16 января, сб
сб1623:00+26˚в457646 0.0 1010452
02:00+25˚в347731 0.0 1009527
05:00+25˚в45789 0.0 1008454
08:00+26˚в45724 0.0 1011546
11:00+28˚в356240 0.0 10101044
14:00+29˚в345855 0.0 10081058
17:00+28˚в676220 0.0 1008895
20:00+26˚вюв566826 0.0 1010630
17 января, вс
вс1723:00+26˚в346997 0.0 1010541
02:00+26˚в346899 0.0 1010687
05:00+26˚св336899 0.0 1008573
08:00+26˚св336696 0.0 1011549
11:00+29˚св465572 0.0 1011997
14:00+28˚св576479 0.0 1008968
17:00+27˚всв4970100 0.1 10081092
20:00+27˚всв4117099 0.2 10111127
18 января, пн
пн1823:00+26˚всв51270100 0.0 10111113
02:00+26˚всв51071100 0.0 10101031
05:00+26˚всв4970100 0.0 1009965
08:00+26˚св586894 0.0 1011841
11:00+29˚всв6115869 0.0 10121429
14:00+29˚всв695639 0.0 10101417
17:00+27˚всв5106377 0.0 10101264
20:00+27˚всв466688 0.0 10111029
19 января, вт
вт1923:00+26˚всв4868100 0.0 10111096
02:00+26˚в5971100 0.1 10101060
05:00+26˚в5972100 0.1 1009982
08:00+26˚всв61272100 0.1 10111130
11:00+28˚всв81366100 0.3 10111479
14:00+27˚всв61270100 0.7 10101289
17:00+27˚всв51272100 0.2 10091166
20:00+26˚всв51174100 0.5 10111013
20 января, ср
ср2023:00+26˚всв61275100 0.4 1011962
02:00+26˚всв61276100 0.5 1010952
05:00+26˚всв6977100 0.6 1009804
08:00+27˚всв71370100 0.6 10111124
11:00+29˚всв6960100 0.0 10111080
14:00+29˚всв5762100 0.1 1009916
17:00+28˚в4670100 0.1 1008672
20:00+27˚св3773100 0.3 1009674